Time,TemperatureF,DewpointF,PressureIn,WindDirection,WindDirectionDegrees,WindSpeedMPH,WindSpeedGustMPH,Humidity,HourlyPrecipIn,Conditions,Clouds,dailyrainin,SoftwareType,DateUTC
2013-06-11 00:00:00,78.9,66.0,29.85,SSE,167,4.0,7.0,64,0.00,,,0.00,weatherlink.com 1.10,2013-06-11 05:00:00,
2013-06-11 00:15:00,79.6,67.0,29.85,SSE,167,7.0,7.0,65,0.00,,,0.00,weatherlink.com 1.10,2013-06-11 05:15:00,
2013-06-11 00:30:00,79.8,68.0,29.85,South,181,2.0,9.0,67,0.00,,,0.00,weatherlink.com 1.10,2013-06-11 05:30:00,
2013-06-11 00:45:00,79.8,69.0,29.85,SSW,192,2.0,12.0,69,0.00,,,0.00,weatherlink.com 1.10,2013-06-11 05:45:00,
2013-06-11 01:00:00,79.4,69.0,29.85,SSW,194,4.0,10.0,70,0.00,,,0.00,weatherlink.com 1.10,2013-06-11 06:00:00,
2013-06-11 01:15:00,79.0,69.0,29.85,SSW,196,2.0,9.0,71,0.00,,,0.00,weatherlink.com 1.10,2013-06-11 06:15:00,
2013-06-11 01:30:00,78.4,69.0,29.85,SSW,196,1.0,5.0,72,0.00,,,0.00,weatherlink.com 1.10,2013-06-11 06:30:00,
2013-06-11 01:45:00,77.9,69.0,29.85,SSW,196,2.0,5.0,74,0.00,,,0.00,weatherlink.com 1.10,2013-06-11 06:45:00,
2013-06-11 02:00:00,77.5,69.0,29.85,SSW,196,4.0,5.0,75,0.00,,,0.00,weatherlink.com 1.10,2013-06-11 07:00:00,
2013-06-11 02:15:00,77.3,69.0,29.85,SSW,196,1.0,5.0,76,0.00,,,0.00,weatherlink.com 1.10,2013-06-11 07:15:00,
2013-06-11 02:30:00,77.0,69.0,29.85,SSW,196,0.0,2.0,77,0.00,,,0.00,weatherlink.com 1.10,2013-06-11 07:30:00,
2013-06-11 02:45:00,76.6,69.0,29.85,SSW,196,0.0,3.0,78,0.00,,,0.00,weatherlink.com 1.10,2013-06-11 07:45:00,
2013-06-11 03:00:00,76.2,69.0,29.85,SSW,196,0.0,1.0,79,0.00,,,0.00,weatherlink.com 1.10,2013-06-11 08:00:00,
2013-06-11 03:15:00,75.9,69.0,29.85,SSW,196,0.0,3.0,79,0.00,,,0.00,weatherlink.com 1.10,2013-06-11 08:15:00,
2013-06-11 03:30:00,75.8,69.0,29.85,SSW,196,0.0,3.0,79,0.00,,,0.00,weatherlink.com 1.10,2013-06-11 08:30:00,
2013-06-11 03:45:00,75.5,69.0,29.85,SSW,196,2.0,4.0,80,0.00,,,0.00,weatherlink.com 1.10,2013-06-11 08:45:00,
2013-06-11 04:00:00,75.6,69.0,29.85,SSW,196,0.0,1.0,81,0.00,,,0.00,weatherlink.com 1.10,2013-06-11 09:00:00,
2013-06-11 04:15:00,75.2,69.0,29.85,SSW,196,0.0,1.0,81,0.00,,,0.00,weatherlink.com 1.10,2013-06-11 09:15:00,
2013-06-11 04:30:00,74.2,68.0,29.85,SSW,196,0.0,0.0,82,0.00,,,0.00,weatherlink.com 1.10,2013-06-11 09:30:00,
2013-06-11 04:45:00,73.2,68.0,29.85,SSW,196,0.0,0.0,84,0.00,,,0.00,weatherlink.com 1.10,2013-06-11 09:45:00,
2013-06-11 05:00:00,72.7,68.0,29.85,SSW,196,0.0,0.0,84,0.00,,,0.00,weatherlink.com 1.10,2013-06-11 10:00:00,
2013-06-11 05:15:00,71.9,67.0,29.86,SSW,196,0.0,0.0,85,0.00,,,0.00,weatherlink.com 1.10,2013-06-11 10:15:00,
2013-06-11 05:30:00,71.8,68.0,29.85,SSW,196,0.0,2.0,88,0.00,,,0.00,weatherlink.com 1.10,2013-06-11 10:30:00,
2013-06-11 05:45:00,72.0,68.0,29.86,SSW,196,0.0,2.0,87,0.00,,,0.00,weatherlink.com 1.10,2013-06-11 10:45:00,
2013-06-11 06:00:00,72.4,68.0,29.86,SSW,196,0.0,1.0,87,0.00,,,0.00,weatherlink.com 1.10,2013-06-11 11:00:00,
2013-06-11 06:15:00,72.2,68.0,29.87,SSW,196,0.0,0.0,86,0.00,,,0.00,weatherlink.com 1.10,2013-06-11 11:15:00,
2013-06-11 06:30:00,71.7,68.0,29.88,SSW,196,0.0,0.0,87,0.00,,,0.00,weatherlink.com 1.10,2013-06-11 11:30:00,
2013-06-11 06:45:00,71.1,67.0,29.88,SSW,196,0.0,0.0,88,0.00,,,0.00,weatherlink.com 1.10,2013-06-11 11:45:00,
2013-06-11 07:00:00,70.8,68.0,29.88,SSW,196,0.0,0.0,89,0.00,,,0.00,weatherlink.com 1.10,2013-06-11 12:00:00,
2013-06-11 07:15:00,71.8,69.0,29.89,SSW,196,0.0,0.0,90,0.00,,,0.00,weatherlink.com 1.10,2013-06-11 12:15:00,
2013-06-11 07:30:00,73.3,69.0,29.89,SSW,196,0.0,1.0,87,0.00,,,0.00,weatherlink.com 1.10,2013-06-11 12:30:00,
2013-06-11 07:45:00,74.8,70.0,29.89,SSW,196,0.0,1.0,84,0.00,,,0.00,weatherlink.com 1.10,2013-06-11 12:45:00,
2013-06-11 08:01:00,76.4,70.0,29.89,SSW,196,1.0,4.0,81,0.00,,,0.00,weatherlink.com 1.10,2013-06-11 13:01:00,
2013-06-11 08:16:00,77.0,70.0,29.90,SSW,196,2.0,4.0,79,0.00,,,0.00,weatherlink.com 1.10,2013-06-11 13:16:00,
2013-06-11 08:31:00,77.8,70.0,29.90,SSW,196,3.0,7.0,77,0.00,,,0.00,weatherlink.com 1.10,2013-06-11 13:31:00,
2013-06-11 08:46:00,77.8,70.0,29.90,SSW,196,3.0,5.0,76,0.00,,,0.00,weatherlink.com 1.10,2013-06-11 13:46:00,
2013-06-11 09:01:00,78.8,70.0,29.91,SSW,197,3.0,7.0,74,0.00,,,0.00,weatherlink.com 1.10,2013-06-11 14:01:00,
2013-06-11 09:16:00,80.5,69.0,29.91,South,186,3.0,9.0,69,0.00,,,0.00,weatherlink.com 1.10,2013-06-11 14:16:00,
2013-06-11 09:46:00,82.4,69.0,29.92,SSW,195,4.0,11.0,65,0.00,,,0.00,weatherlink.com 1.10,2013-06-11 14:46:00,
2013-06-11 10:01:00,82.0,69.0,29.91,SSW,209,6.0,8.0,65,0.00,,,0.00,weatherlink.com 1.10,2013-06-11 15:01:00,
2013-06-11 10:16:00,82.9,69.0,29.91,SW,218,2.0,9.0,63,0.00,,,0.00,weatherlink.com 1.10,2013-06-11 15:16:00,
2013-06-11 10:31:00,83.9,69.0,29.91,SSW,205,6.0,9.0,61,0.00,,,0.00,weatherlink.com 1.10,2013-06-11 15:31:00,
2013-06-11 10:46:00,84.6,69.0,29.91,SW,227,3.0,8.0,59,0.00,,,0.00,weatherlink.com 1.10,2013-06-11 15:46:00,
2013-06-11 11:01:00,85.2,68.0,29.90,SE,138,4.0,10.0,57,0.00,,,0.00,weatherlink.com 1.10,2013-06-11 16:01:00,
2013-06-11 11:16:00,85.9,69.0,29.90,West,270,2.0,10.0,57,0.00,,,0.00,weatherlink.com 1.10,2013-06-11 16:16:00,
2013-06-11 11:31:00,86.5,68.0,29.90,South,183,4.0,9.0,55,0.00,,,0.00,weatherlink.com 1.10,2013-06-11 16:31:00,
2013-06-11 11:46:00,87.3,68.0,29.90,South,188,3.0,8.0,53,0.00,,,0.00,weatherlink.com 1.10,2013-06-11 16:46:00,
2013-06-11 12:01:00,87.4,68.0,29.90,SW,218,3.0,10.0,53,0.00,,,0.00,weatherlink.com 1.10,2013-06-11 17:01:00,
2013-06-11 12:16:00,89.5,68.0,29.89,SE,146,2.0,9.0,50,0.00,,,0.00,weatherlink.com 1.10,2013-06-11 17:16:00,
2013-06-11 12:31:00,89.8,68.0,29.89,South,185,5.0,13.0,48,0.00,,,0.00,weatherlink.com 1.10,2013-06-11 17:31:00,
2013-06-11 12:46:00,89.9,68.0,29.89,South,169,3.0,12.0,48,0.00,,,0.00,weatherlink.com 1.10,2013-06-11 17:46:00,
2013-06-11 13:01:00,89.9,66.0,29.89,South,173,6.0,9.0,46,0.00,,,0.00,weatherlink.com 1.10,2013-06-11 18:01:00,
2013-06-11 13:16:00,90.9,67.0,29.88,SSE,158,7.0,11.0,45,0.00,,,0.00,weatherlink.com 1.10,2013-06-11 18:16:00,
2013-06-11 13:31:00,90.9,67.0,29.88,SSE,168,7.0,11.0,45,0.00,,,0.00,weatherlink.com 1.10,2013-06-11 18:31:00,
2013-06-11 13:47:00,92.6,66.0,29.87,SSE,151,7.0,17.0,42,0.00,,,0.00,weatherlink.com 1.10,2013-06-11 18:47:00,
2013-06-11 14:02:00,93.1,67.0,29.87,SSW,197,6.0,12.0,43,0.00,,,0.00,weatherlink.com 1.10,2013-06-11 19:02:00,
2013-06-11 14:17:00,92.7,65.0,29.86,South,175,6.0,15.0,40,0.00,,,0.00,weatherlink.com 1.10,2013-06-11 19:17:00,
2013-06-11 14:32:00,91.9,66.0,29.86,SSW,197,8.0,13.0,43,0.00,,,0.00,weatherlink.com 1.10,2013-06-11 19:32:00,
2013-06-11 14:47:00,92.9,67.0,29.85,South,175,3.0,15.0,42,0.00,,,0.00,weatherlink.com 1.10,2013-06-11 19:47:00,
2013-06-11 15:02:00,92.9,67.0,29.84,SSW,194,4.0,14.0,42,0.00,,,0.00,weatherlink.com 1.10,2013-06-11 20:02:00,
2013-06-11 15:17:00,94.2,66.0,29.84,South,171,8.0,14.0,40,0.00,,,0.00,weatherlink.com 1.10,2013-06-11 20:17:00,
2013-06-11 15:32:00,94.4,67.0,29.84,SSE,167,2.0,13.0,41,0.00,,,0.00,weatherlink.com 1.10,2013-06-11 20:32:00,
2013-06-11 15:47:00,94.0,67.0,29.84,SSW,192,10.0,15.0,41,0.00,,,0.00,weatherlink.com 1.10,2013-06-11 20:47:00,
2013-06-11 16:02:00,94.8,66.0,29.83,South,180,7.0,13.0,39,0.00,,,0.00,weatherlink.com 1.10,2013-06-11 21:02:00,
2013-06-11 16:17:00,93.2,66.0,29.82,SSW,199,6.0,14.0,40,0.00,,,0.00,weatherlink.com 1.10,2013-06-11 21:17:00,
2013-06-11 16:32:00,94.8,66.0,29.82,South,180,7.0,14.0,39,0.00,,,0.00,weatherlink.com 1.10,2013-06-11 21:32:00,
2013-06-11 16:47:00,93.9,66.0,29.82,SSE,151,14.0,15.0,40,0.00,,,0.00,weatherlink.com 1.10,2013-06-11 21:47:00,
2013-06-11 17:02:00,93.9,65.0,29.83,SSE,157,10.0,17.0,39,0.00,,,0.00,weatherlink.com 1.10,2013-06-11 22:02:00,
2013-06-11 17:17:00,93.0,66.0,29.83,SE,146,9.0,17.0,41,0.00,,,0.00,weatherlink.com 1.10,2013-06-11 22:17:00,
2013-06-11 17:32:00,92.8,66.0,29.83,South,172,9.0,13.0,42,0.00,,,0.00,weatherlink.com 1.10,2013-06-11 22:32:00,
2013-06-11 17:47:00,92.6,66.0,29.83,SW,232,9.0,17.0,41,0.00,,,0.00,weatherlink.com 1.10,2013-06-11 22:47:00,
2013-06-11 18:02:00,93.6,67.0,29.82,SSW,203,5.0,10.0,41,0.00,,,0.00,weatherlink.com 1.10,2013-06-11 23:02:00,
2013-06-11 18:17:00,92.3,66.0,29.82,South,174,12.0,15.0,42,0.00,,,0.00,weatherlink.com 1.10,2013-06-11 23:17:00,
2013-06-11 18:32:00,92.2,67.0,29.82,South,187,7.0,16.0,43,0.00,,,0.00,weatherlink.com 1.10,2013-06-11 23:32:00,
2013-06-11 18:47:00,91.3,67.0,29.81,SSW,200,7.0,16.0,45,0.00,,,0.00,weatherlink.com 1.10,2013-06-11 23:47:00,
2013-06-11 19:02:00,91.3,67.0,29.81,South,171,16.0,21.0,45,0.00,,,0.00,weatherlink.com 1.10,2013-06-12 00:02:00,
2013-06-11 19:17:00,87.6,68.0,29.82,SSW,196,9.0,16.0,52,0.00,,,0.00,weatherlink.com 1.10,2013-06-12 00:17:00,
2013-06-11 19:32:00,86.4,67.0,29.83,SSW,207,3.0,16.0,53,0.00,,,0.00,weatherlink.com 1.10,2013-06-12 00:32:00,
2013-06-11 19:47:00,86.0,67.0,29.83,South,182,10.0,13.0,54,0.00,,,0.00,weatherlink.com 1.10,2013-06-12 00:47:00,
2013-06-11 20:02:00,85.9,67.0,29.83,South,173,5.0,11.0,54,0.00,,,0.00,weatherlink.com 1.10,2013-06-12 01:02:00,
2013-06-11 20:32:00,84.5,68.0,29.84,SSE,164,8.0,12.0,57,0.00,,,0.00,weatherlink.com 1.10,2013-06-12 01:32:00,
2013-06-11 20:47:00,83.3,67.0,29.85,South,182,5.0,7.0,58,0.00,,,0.00,weatherlink.com 1.10,2013-06-12 01:47:00,
2013-06-11 21:02:00,82.4,68.0,29.86,South,185,5.0,7.0,61,0.00,,,0.00,weatherlink.com 1.10,2013-06-12 02:02:00,
2013-06-11 21:17:00,81.7,67.0,29.86,South,185,2.0,6.0,62,0.00,,,0.00,weatherlink.com 1.10,2013-06-12 02:17:00,
2013-06-11 21:32:00,81.1,68.0,29.87,South,175,4.0,8.0,65,0.00,,,0.00,weatherlink.com 1.10,2013-06-12 02:32:00,
2013-06-11 21:47:00,80.3,68.0,29.87,South,191,2.0,7.0,67,0.00,,,0.00,weatherlink.com 1.10,2013-06-12 02:47:00,
2013-06-11 22:02:00,79.6,69.0,29.88,South,189,1.0,6.0,69,0.00,,,0.00,weatherlink.com 1.10,2013-06-12 03:02:00,
2013-06-11 22:17:00,79.1,68.0,29.88,South,188,4.0,8.0,69,0.00,,,0.00,weatherlink.com 1.10,2013-06-12 03:17:00,
2013-06-11 22:32:00,78.5,68.0,29.88,South,188,5.0,5.0,70,0.00,,,0.00,weatherlink.com 1.10,2013-06-12 03:32:00,
2013-06-11 22:47:00,78.1,68.0,29.89,South,187,1.0,5.0,72,0.00,,,0.00,weatherlink.com 1.10,2013-06-12 03:47:00,
2013-06-11 23:02:00,77.6,68.0,29.89,South,187,0.0,4.0,73,0.00,,,0.00,weatherlink.com 1.10,2013-06-12 04:02:00,
2013-06-11 23:17:00,77.2,69.0,29.90,South,187,0.0,2.0,75,0.00,,,0.00,weatherlink.com 1.10,2013-06-12 04:17:00,
2013-06-11 23:32:00,76.7,69.0,29.90,South,187,0.0,2.0,76,0.00,,,0.00,weatherlink.com 1.10,2013-06-12 04:32:00,
2013-06-11 23:47:00,76.1,68.0,29.90,South,187,0.0,2.0,77,0.00,,,0.00,weatherlink.com 1.10,2013-06-12 04:47:00,